Fremont, MI

1:06 AM EDT on July 24, 2019 (GMT -0400)
Fremont

Weather History for KFFX - May, 2019

Change the Weather History Date:

Friday, May 24, 2019

  Actual Average (KMKG) Record (KMKG)
Temperature  
Mean Temperature 54 °F -  
Max Temperature 62 °F 69 °F 89 °F (2010)
Min Temperature 45 °F 49 °F 32 °F (1956)
Degree Days  
Heating Degree Days 12    
Growing Degree Days 4 (Base 50)    
Moisture  
Dew Point 51 °F    
Average Humidity 85    
Maximum Humidity 99    
Minimum Humidity 70    
Precipitation  
Precipitation 0.00 in - - ()
Sea Level Pressure  
Sea Level Pressure 30.09 in    
Wind  
Wind Speed 3 mph ()    
Max Wind Speed 17 mph    
Max Gust Speed 23 mph    
Visibility 10.0 miles    
Events Rain    
Averages and records for this station are not official NWS values.
T = Trace of Precipitation, MM = Missing Value Source: Averaged Metar Reports

Daily Weather History Graph

Daily Weather History Graph

Search for Another Location

Airport or City:

Astronomy

May. 24, 2019 Rise Set
Actual Time 6:11 AM EDT 9:10 PM EDT
Civil Twilight 5:37 AM EDT 9:44 PM EDT
Nautical Twilight 4:54 AM EDT 10:28 PM EDT
Astronomical Twilight 4:03 AM EDT 11:19 PM EDT
Moon 1:34 AM EDT 11:12 AM EDT
Length of Visible Light 16h 07m
Length of Day
14h 59m
Waning Gibbous, 69% of the Moon is Illuminated
May 24
Waning Gibbous
May 26
Last Quarter
Jun 3
New
Jun 10
First Quarter
Jun 17
Full

Hourly Weather History & Observations

Time (EDT) Temp. Dew Point Humidity Pressure Visibility Wind Dir Wind Speed Gust Speed Precip Events Conditions
12:15 AM 52.7 °F 45.3 °F 76% 30.09 in 10.0 mi North 3.5 mph - N/A   Clear
12:16 AM 52.7 °F 45.3 °F 76% 30.09 in 10.0 mi North 3.5 mph - N/A   Clear
12:35 AM 52.3 °F 45.0 °F 76% 30.08 in 10.0 mi North 4.6 mph - N/A   Clear
12:36 AM 52.2 °F 45.0 °F 76% 30.08 in 10.0 mi North 4.6 mph - N/A   Clear
12:55 AM 51.8 °F 45.1 °F 78% 30.09 in 10.0 mi NNW 4.6 mph - N/A   Clear
1:15 AM 51.1 °F 45.0 °F 80% 30.09 in 10.0 mi NNW 3.5 mph - N/A   Clear
1:16 AM 50.9 °F 45.0 °F 80% 30.09 in 10.0 mi NW 4.6 mph - N/A   Clear
1:35 AM 50.9 °F 44.8 °F 80% 30.09 in 10.0 mi North 4.6 mph - N/A   Clear
1:55 AM 51.1 °F 44.6 °F 78% 30.07 in 10.0 mi NNE 4.6 mph - N/A   Clear
2:15 AM 50.7 °F 44.8 °F 80% 30.08 in 10.0 mi Calm Calm - N/A   Clear
2:16 AM 50.5 °F 44.8 °F 81% 30.08 in 10.0 mi Calm Calm - N/A   Clear
2:35 AM 50.2 °F 45.0 °F 82% 30.09 in 10.0 mi Calm Calm - N/A   Clear
2:55 AM 50.0 °F 45.1 °F 83% 30.09 in 10.0 mi Calm Calm - N/A   Clear
3:15 AM 49.1 °F 45.5 °F 87% 30.10 in 10.0 mi Calm Calm - N/A   Clear
3:16 AM 49.3 °F 45.5 °F 87% 30.10 in 10.0 mi North 3.5 mph - N/A   Clear
3:35 AM 49.5 °F 46.6 °F 90% 30.09 in 10.0 mi Calm Calm - N/A   Clear
3:55 AM 48.7 °F 46.0 °F 90% 30.09 in 10.0 mi Calm Calm - N/A   Clear
4:15 AM 45.9 °F 45.0 °F 97% 30.09 in 10.0 mi Calm Calm - N/A   Clear
4:16 AM 46.0 °F 45.1 °F 97% 30.10 in 10.0 mi Calm Calm - N/A   Clear
4:35 AM 47.3 °F 46.4 °F 97% 30.10 in 10.0 mi Calm Calm - N/A   Clear
4:55 AM 47.1 °F 46.4 °F 97% 30.09 in 10.0 mi Calm Calm - N/A   Clear
5:15 AM 47.3 °F 46.4 °F 97% 30.11 in 10.0 mi Calm Calm - N/A   Clear
5:16 AM 47.3 °F 46.2 °F 96% 30.11 in 10.0 mi Calm Calm - N/A   Clear
5:35 AM 46.8 °F 46.6 °F 99% 30.12 in 10.0 mi Calm Calm - N/A   Clear
5:55 AM 47.3 °F 46.6 °F 97% 30.14 in 10.0 mi Calm Calm - N/A   Clear
6:15 AM 47.3 °F 46.6 °F 97% 30.13 in 10.0 mi Calm Calm - N/A   Clear
6:35 AM 47.5 °F 47.3 °F 99% 30.12 in 10.0 mi Calm Calm - N/A   Clear
6:36 AM 47.7 °F 47.3 °F 99% 30.12 in 10.0 mi Calm Calm - N/A   Clear
6:55 AM 48.6 °F 47.8 °F 97% 30.14 in 10.0 mi Calm Calm - N/A   Clear
7:15 AM 49.1 °F 48.2 °F 97% 30.17 in 10.0 mi NNW 3.5 mph - N/A   Clear
7:16 AM 49.1 °F 48.2 °F 97% 30.17 in 10.0 mi Calm Calm - N/A   Clear
7:35 AM 49.5 °F 49.1 °F 99% 30.18 in 10.0 mi Calm Calm - N/A   Clear
7:36 AM 49.6 °F 49.1 °F 98% 30.18 in 10.0 mi Calm Calm - N/A   Clear
7:55 AM 50.2 °F 49.3 °F 97% 30.19 in 10.0 mi Calm Calm - N/A   Clear
8:15 AM 50.9 °F 49.3 °F 94% 30.20 in 10.0 mi Calm Calm - N/A   Scattered Clouds
8:16 AM 50.9 °F 49.5 °F 95% 30.20 in 10.0 mi Calm Calm - N/A   Scattered Clouds
8:35 AM 50.9 °F 49.8 °F 96% 30.20 in 10.0 mi Calm Calm - N/A   Overcast
8:36 AM 50.9 °F 49.8 °F 96% 30.20 in 10.0 mi Calm Calm - N/A   Mostly Cloudy
8:55 AM 51.6 °F 50.2 °F 95% 30.19 in 10.0 mi East 3.5 mph - N/A   Mostly Cloudy
9:15 AM 52.2 °F 50.4 °F 94% 30.18 in 10.0 mi Calm Calm - N/A   Drizzle
9:35 AM 52.7 °F 50.0 °F 91% 30.15 in 10.0 mi East 5.8 mph - N/A   Drizzle
9:55 AM 52.7 °F 50.5 °F 92% 30.12 in 10.0 mi ESE 4.6 mph - N/A Rain Light Rain
9:56 AM 52.7 °F 50.5 °F 92% 30.12 in 10.0 mi ESE 5.8 mph - N/A Rain Light Rain
10:15 AM 53.6 °F 51.6 °F 93% 30.12 in 10.0 mi SE 5.8 mph - N/A   Light Drizzle
10:35 AM 55.0 °F 49.8 °F 83% 30.10 in 10.0 mi ESE 6.9 mph - N/A   Clear
10:55 AM 55.4 °F 50.2 °F 83% 30.09 in 10.0 mi ESE 6.9 mph - N/A   Clear
10:56 AM 55.8 °F 50.4 °F 82% 30.09 in 10.0 mi ESE 8.1 mph - N/A   Scattered Clouds
11:15 AM 55.4 °F 48.4 °F 77% 30.11 in 10.0 mi Calm Calm - N/A   Mostly Cloudy
11:35 AM 55.8 °F 50.2 °F 82% 30.17 in 10.0 mi SW 3.5 mph - N/A Rain Light Rain
11:55 AM 55.4 °F 51.8 °F 88% 30.17 in 10.0 mi Calm Calm - N/A Rain Rain
12:15 PM 55.4 °F 51.6 °F 87% 30.15 in 10.0 mi East 3.5 mph - N/A   Overcast
12:16 PM 55.4 °F 51.4 °F 87% 30.15 in 10.0 mi Calm Calm - N/A   Overcast
12:35 PM 55.6 °F 52.7 °F 90% 30.15 in 10.0 mi Calm Calm - N/A   Overcast
12:36 PM 55.6 °F 52.5 °F 89% 30.15 in 10.0 mi Calm Calm - N/A   Overcast
12:55 PM 56.5 °F 52.9 °F 88% 30.16 in 10.0 mi Calm Calm - N/A   Overcast
1:15 PM 57.2 °F 53.2 °F 87% 30.16 in 10.0 mi East 3.5 mph - N/A   Overcast
1:35 PM 57.0 °F 52.9 °F 86% 30.17 in 10.0 mi Calm Calm - N/A   Overcast
1:36 PM 57.0 °F 52.9 °F 86% 30.17 in 10.0 mi Calm Calm - N/A   Overcast
1:55 PM 57.9 °F 53.6 °F 86% 30.16 in 10.0 mi ENE 4.6 mph - N/A   Overcast
2:15 PM 57.9 °F 53.1 °F 84% 30.16 in 10.0 mi Calm Calm - N/A   Overcast
2:16 PM 57.9 °F 52.7 °F 83% 30.16 in 10.0 mi Calm Calm - N/A   Overcast
2:35 PM 58.3 °F 53.2 °F 83% 30.17 in 10.0 mi SSW 4.6 mph - N/A   Overcast
2:36 PM 58.3 °F 53.2 °F 83% 30.17 in 10.0 mi SSW 4.6 mph - N/A   Overcast
2:55 PM 58.1 °F 53.8 °F 86% 30.15 in 10.0 mi SSE 3.5 mph - N/A   Light Drizzle
2:56 PM 58.1 °F 54.0 °F 86% 30.15 in 10.0 mi SSE 3.5 mph - N/A   Light Drizzle
3:15 PM 58.6 °F 53.6 °F 83% 30.12 in 10.0 mi SE 5.8 mph - N/A   Mostly Cloudy
3:35 PM 59.0 °F 53.8 °F 83% 30.09 in 10.0 mi SE 6.9 mph - N/A   Light Drizzle
3:36 PM 59.2 °F 53.8 °F 82% 30.08 in 10.0 mi ESE 9.2 mph - N/A   Light Drizzle
3:55 PM 58.5 °F 54.3 °F 86% 30.07 in 10.0 mi SE 11.5 mph - N/A Rain Rain
3:56 PM 58.5 °F 54.3 °F 86% 30.07 in 10.0 mi ESE 12.7 mph - N/A Rain Rain
4:15 PM 59.9 °F 55.2 °F 84% 30.04 in 10.0 mi SE 10.4 mph - N/A   Scattered Clouds
4:35 PM 59.9 °F 54.0 °F 81% 29.98 in 10.0 mi SE 17.3 mph 23.0 mph N/A   Scattered Clouds
4:55 PM 59.9 °F 54.7 °F 83% 30.09 in 10.0 mi Calm Calm - N/A   Mostly Cloudy
4:56 PM 59.9 °F 54.5 °F 82% 30.08 in 10.0 mi ENE 3.5 mph - N/A   Mostly Cloudy
5:15 PM 60.4 °F 53.8 °F 79% 30.08 in 10.0 mi ESE 5.8 mph - N/A   Mostly Cloudy
5:35 PM 60.8 °F 53.8 °F 78% 30.08 in 10.0 mi East 8.1 mph - N/A   Clear
5:55 PM 62.6 °F 53.8 °F 73% 30.04 in 10.0 mi East 11.5 mph - N/A   Clear
5:56 PM 62.6 °F 53.6 °F 72% 30.05 in 10.0 mi East 9.2 mph - N/A   Clear
6:15 PM 62.1 °F 53.1 °F 72% 30.05 in 10.0 mi ESE 6.9 mph - N/A   Clear
6:16 PM 62.1 °F 53.1 °F 72% 30.05 in 10.0 mi ESE 6.9 mph - N/A   Clear
6:35 PM 62.2 °F 53.1 °F 72% 30.03 in 10.0 mi ESE 10.4 mph - N/A   Clear
6:55 PM 62.4 °F 52.7 °F 70% 30.04 in 10.0 mi SE 5.8 mph 10.4 mph N/A   Clear
6:56 PM 62.4 °F 52.9 °F 71% 30.04 in 10.0 mi SE 8.1 mph - N/A   Clear
7:15 PM 62.1 °F 52.2 °F 70% 30.03 in 10.0 mi SE 11.5 mph - N/A   Clear
7:16 PM 62.1 °F 52.2 °F 70% 30.03 in 10.0 mi SE 11.5 mph - N/A   Clear
7:35 PM 61.9 °F 52.7 °F 72% 30.03 in 10.0 mi ESE 6.9 mph - N/A   Scattered Clouds
7:55 PM 62.1 °F 52.0 °F 70% 30.01 in 10.0 mi SE 10.4 mph - N/A   Mostly Cloudy
8:15 PM 61.3 °F 52.0 °F 71% 30.02 in 10.0 mi SE 11.5 mph 16.1 mph N/A   Overcast
8:16 PM 61.3 °F 52.0 °F 71% 30.02 in 10.0 mi SE 11.5 mph 16.1 mph N/A   Overcast
8:35 PM 61.3 °F 52.2 °F 72% 30.02 in 10.0 mi SE 8.1 mph - N/A   Overcast
8:55 PM 61.0 °F 52.7 °F 74% 30.01 in 10.0 mi SE 9.2 mph 17.3 mph N/A   Overcast
9:15 PM 60.8 °F 53.1 °F 76% 30.00 in 10.0 mi ESE 6.9 mph - N/A   Overcast
9:16 PM 60.8 °F 53.1 °F 76% 30.00 in 10.0 mi ESE 6.9 mph - N/A   Overcast
9:35 PM 60.6 °F 53.6 °F 78% 30.01 in 10.0 mi ESE 6.9 mph - N/A   Overcast
9:55 PM 60.3 °F 53.8 °F 79% 30.00 in 10.0 mi ESE 5.8 mph - N/A   Overcast
10:15 PM 60.3 °F 54.1 °F 80% 30.00 in 10.0 mi ESE 8.1 mph - N/A   Overcast
10:35 PM 60.3 °F 54.5 °F 81% 29.99 in 10.0 mi ESE 8.1 mph - N/A   Overcast
10:36 PM 60.3 °F 54.5 °F 81% 29.99 in 10.0 mi ESE 8.1 mph - N/A   Overcast
10:55 PM 60.3 °F 54.9 °F 82% 29.98 in 10.0 mi ESE 10.4 mph - N/A   Overcast
11:15 PM 60.3 °F 55.4 °F 84% 29.97 in 10.0 mi ESE 9.2 mph 17.3 mph N/A   Overcast
11:35 PM 60.3 °F 55.4 °F 84% 29.96 in 10.0 mi ESE 8.1 mph - N/A   Overcast
11:36 PM 60.3 °F 55.4 °F 84% 29.96 in 10.0 mi ESE 8.1 mph - N/A   Overcast
11:55 PM 60.8 °F 55.2 °F 82% 29.95 in 10.0 mi ESE 9.2 mph 16.1 mph N/A   Overcast